When you browse on this site, cookies collect data to enhance your experience and personalize the content and advertising you see.
Visit our Privacy Policy to learn more. By continuing to use the site, you agree to this use of cookies and data.
  • în România
  • Lista ţărilor
  • Pe 7 zile
  • Temperatura apei
  • Hartă satelitară
  • Meteo pe hartă
  • Widget-uri
  • user-avatar
    Intrare

    Meteo pe oră la Ascea

    Astăzi, 19 Iulie, Vineri

    Timp Temperatura Precipitaţii Vânt Presiune Umiditate
    00:00 +22°C° 0 mm 1 m/s 750 mmHg 81%
    01:00 +21°C° 0 mm 1 m/s 750 mmHg 82%
    02:00 +21°C° 0 mm 1 m/s 750 mmHg 82%
    03:00 +21°C° 0 mm 1 m/s 750 mmHg 82%
    04:00 +21°C° 0 mm 1 m/s 750 mmHg 83%
    05:00 +23°C° 0 mm 1 m/s 750 mmHg 78%
    06:00 +22°C° 0 mm 0 m/s 751 mmHg 74%
    07:00 +24°C° 0 mm 0 m/s 751 mmHg 69%
    08:00 +27°C° 0 mm 1 m/s 751 mmHg 63%
    09:00 +29°C° 0 mm 1 m/s 751 mmHg 58%
    10:00 +30°C° 0 mm 2 m/s 751 mmHg 52%
    11:00 +30°C° 0.1 mm 2 m/s 751 mmHg 52%
    12:00 +30°C° 0.1 mm 3 m/s 751 mmHg 52%
    13:00 +29°C° 0 mm 3 m/s 752 mmHg 61%
    14:00 +29°C° 0.5 mm 3 m/s 751 mmHg 62%
    15:00 +29°C° 0.5 mm 3 m/s 751 mmHg 63%
    16:00 +29°C° 0.5 mm 3 m/s 751 mmHg 64%
    17:00 +27°C° 0.3 mm 3 m/s 751 mmHg 72%
    18:00 +26°C° 0.3 mm 3 m/s 752 mmHg 79%
    19:00 +24°C° 0.3 mm 3 m/s 752 mmHg 86%
    20:00 +24°C° 0 mm 3 m/s 752 mmHg 84%
    21:00 +23°C° 0 mm 2 m/s 752 mmHg 83%
    22:00 +23°C° 0 mm 2 m/s 752 mmHg 81%
    23:00 +21°C° 0 mm 2 m/s 752 mmHg 79%

    Mâine, 20 Iulie, Sâmbătă

    Timp Temperatura Precipitaţii Vânt Presiune Umiditate
    00:00 +21°C° 0 mm 2 m/s 752 mmHg 77%
    01:00 +22°C° 0 mm 1 m/s 752 mmHg 76%
    02:00 +22°C° 0 mm 1 m/s 752 mmHg 75%
    03:00 +22°C° 0 mm 1 m/s 752 mmHg 74%
    04:00 +22°C° 0 mm 1 m/s 752 mmHg 74%
    05:00 +23°C° 0 mm 1 m/s 752 mmHg 70%
    06:00 +25°C° 0 mm 1 m/s 753 mmHg 66%
    07:00 +24°C° 0 mm 0 m/s 753 mmHg 62%
    08:00 +28°C° 0 mm 1 m/s 753 mmHg 56%
    09:00 +29°C° 0 mm 1 m/s 753 mmHg 51%
    10:00 +31°C° 0 mm 1 m/s 753 mmHg 45%
    11:00 +31°C° 0 mm 1 m/s 753 mmHg 46%
    12:00 +31°C° 0 mm 2 m/s 753 mmHg 46%
    13:00 +32°C° 0 mm 2 m/s 754 mmHg 46%
    14:00 +32°C° 0 mm 2 m/s 753 mmHg 47%
    15:00 +31°C° 0 mm 2 m/s 753 mmHg 49%
    16:00 +31°C° 0 mm 2 m/s 753 mmHg 50%
    17:00 +29°C° 0 mm 2 m/s 753 mmHg 58%
    18:00 +28°C° 0 mm 2 m/s 753 mmHg 66%
    19:00 +26°C° 0 mm 2 m/s 753 mmHg 75%
    20:00 +25°C° 0 mm 1 m/s 753 mmHg 74%
    21:00 +25°C° 0 mm 1 m/s 754 mmHg 74%
    22:00 +24°C° 0 mm 1 m/s 754 mmHg 73%
    23:00 +24°C° 0 mm 1 m/s 754 mmHg 72%

    Poimâine, 21 Iulie, Duminică

    Timp Temperatura Precipitaţii Vânt Presiune Umiditate
    00:00 +24°C° 0 mm 1 m/s 754 mmHg 70%
    01:00 +24°C° 0 mm 1 m/s 754 mmHg 69%
    02:00 +24°C° 0 mm 1 m/s 754 mmHg 68%
    03:00 +23°C° 0 mm 1 m/s 754 mmHg 67%
    04:00 +23°C° 0 mm 1 m/s 753 mmHg 66%
    05:00 +25°C° 0 mm 1 m/s 754 mmHg 62%
    06:00 +26°C° 0 mm 1 m/s 754 mmHg 58%
    07:00 +28°C° 0 mm 1 m/s 754 mmHg 54%
    08:00 +30°C° 0 mm 1 m/s 754 mmHg 48%
    09:00 +31°C° 0 mm 1 m/s 754 mmHg 43%
    10:00 +33°C° 0 mm 1 m/s 755 mmHg 38%
    11:00 +34°C° 0 mm 2 m/s 755 mmHg 39%
    12:00 +34°C° 0 mm 2 m/s 754 mmHg 41%
    13:00 +34°C° 0 mm 2 m/s 754 mmHg 43%
    14:00 +34°C° 0 mm 2 m/s 754 mmHg 44%
    15:00 +34°C° 0 mm 2 m/s 754 mmHg 46%
    16:00 +32°C° 0 mm 2 m/s 754 mmHg 47%
    17:00 +30°C° 0 mm 2 m/s 754 mmHg 55%
    18:00 +29°C° 0 mm 2 m/s 754 mmHg 63%
    19:00 +27°C° 0 mm 1 m/s 754 mmHg 70%
    20:00 +26°C° 0 mm 1 m/s 754 mmHg 70%
    21:00 +26°C° 0 mm 1 m/s 755 mmHg 70%
    22:00 +25°C° 0 mm 1 m/s 755 mmHg 70%
    23:00 +25°C° 0 mm 1 m/s 755 mmHg 68%

    22 Iulie, Luni

    Timp Temperatura Precipitaţii Vânt Presiune Umiditate
    00:00 +25°C° 0 mm 1 m/s 755 mmHg 65%
    01:00 +25°C° 0 mm 1 m/s 754 mmHg 63%
    02:00 +25°C° 0 mm 1 m/s 754 mmHg 61%
    03:00 +24°C° 0 mm 1 m/s 754 mmHg 58%
    04:00 +24°C° 0 mm 1 m/s 754 mmHg 56%
    05:00 +26°C° 0 mm 1 m/s 754 mmHg 53%
    06:00 +27°C° 0 mm 1 m/s 754 mmHg 51%
    07:00 +29°C° 0 mm 1 m/s 754 mmHg 48%
    08:00 +30°C° 0 mm 1 m/s 755 mmHg 45%
    09:00 +32°C° 0 mm 2 m/s 755 mmHg 41%
    10:00 +34°C° 0 mm 2 m/s 755 mmHg 38%
    11:00 +35°C° 0 mm 2 m/s 755 mmHg 39%
    12:00 +35°C° 0 mm 2 m/s 754 mmHg 39%
    13:00 +35°C° 0 mm 2 m/s 754 mmHg 39%
    14:00 +35°C° 0 mm 2 m/s 754 mmHg 41%
    15:00 +34°C° 0 mm 2 m/s 754 mmHg 42%
    16:00 +34°C° 0 mm 2 m/s 753 mmHg 43%
    17:00 +31°C° 0 mm 1 m/s 753 mmHg 53%
    18:00 +29°C° 0 mm 1 m/s 753 mmHg 62%
    19:00 +27°C° 0 mm 1 m/s 753 mmHg 71%
    20:00 +26°C° 0 mm 1 m/s 753 mmHg 70%
    21:00 +26°C° 0 mm 1 m/s 754 mmHg 70%
    22:00 +25°C° 0 mm 1 m/s 754 mmHg 70%
    23:00 +25°C° 0 mm 1 m/s 754 mmHg 68%

    23 Iulie, Marţi

    Timp Temperatura Precipitaţii Vânt Presiune Umiditate
    00:00 +25°C° 0 mm 1 m/s 753 mmHg 67%
    01:00 +25°C° 0 mm 1 m/s 753 mmHg 65%
    02:00 +25°C° 0 mm 1 m/s 753 mmHg 65%
    03:00 +24°C° 0 mm 1 m/s 753 mmHg 64%
    04:00 +24°C° 0 mm 1 m/s 752 mmHg 64%
    05:00 +26°C° 0 mm 1 m/s 752 mmHg 61%
    06:00 +27°C° 0 mm 1 m/s 752 mmHg 57%
    07:00 +29°C° 0 mm 1 m/s 752 mmHg 54%
    08:00 +30°C° 0 mm 1 m/s 752 mmHg 49%
    09:00 +32°C° 0 mm 1 m/s 753 mmHg 45%
    10:00 +34°C° 0 mm 1 m/s 753 mmHg 40%
    11:00 +36°C° 0 mm 2 m/s 752 mmHg 40%
    12:00 +36°C° 0 mm 2 m/s 752 mmHg 39%
    13:00 +36°C° 0 mm 2 m/s 752 mmHg 39%
    14:00 +36°C° 0 mm 2 m/s 752 mmHg 40%
    15:00 +36°C° 0 mm 2 m/s 751 mmHg 42%
    16:00 +35°C° 0 mm 2 m/s 751 mmHg 43%
    17:00 +32°C° 0 mm 1 m/s 751 mmHg 51%
    18:00 +30°C° 0 mm 1 m/s 751 mmHg 59%
    19:00 +26°C° 0 mm 0 m/s 751 mmHg 67%
    20:00 +28°C° 0 mm 1 m/s 751 mmHg 65%
    21:00 +27°C° 0 mm 1 m/s 752 mmHg 64%
    22:00 +26°C° 0 mm 1 m/s 752 mmHg 62%
    23:00 +26°C° 0 mm 1 m/s 752 mmHg 62%

    24 Iulie, Miercuri

    Timp Temperatura Precipitaţii Vânt Presiune Umiditate
    00:00 +25°C° 0 mm 1 m/s 751 mmHg 62%
    01:00 +25°C° 0 mm 1 m/s 751 mmHg 63%
    02:00 +25°C° 0 mm 1 m/s 751 mmHg 62%
    03:00 +25°C° 0 mm 1 m/s 751 mmHg 61%
    04:00 +25°C° 0 mm 2 m/s 751 mmHg 60%
    05:00 +26°C° 0 mm 1 m/s 751 mmHg 57%
    06:00 +27°C° 0 mm 1 m/s 751 mmHg 54%
    07:00 +29°C° 0 mm 1 m/s 751 mmHg 52%
    08:00 +30°C° 0 mm 1 m/s 751 mmHg 47%
    09:00 +32°C° 0 mm 1 m/s 751 mmHg 43%
    10:00 +34°C° 0 mm 1 m/s 752 mmHg 39%
    11:00 +35°C° 0 mm 2 m/s 752 mmHg 38%
    12:00 +36°C° 0 mm 3 m/s 751 mmHg 37%
    13:00 +36°C° 0 mm 3 m/s 751 mmHg 37%
    14:00 +36°C° 0 mm 3 m/s 751 mmHg 37%
    15:00 +36°C° 0 mm 3 m/s 751 mmHg 38%
    16:00 +36°C° 0 mm 3 m/s 751 mmHg 38%
    17:00 +34°C° 0 mm 2 m/s 751 mmHg 45%
    18:00 +30°C° 0 mm 2 m/s 751 mmHg 52%
    19:00 +28°C° 0 mm 2 m/s 751 mmHg 60%
    20:00 +28°C° 0 mm 2 m/s 751 mmHg 60%
    21:00 +27°C° 0 mm 2 m/s 751 mmHg 60%
    22:00 +26°C° 0 mm 2 m/s 752 mmHg 60%
    23:00 +25°C° 0 mm 2 m/s 752 mmHg 62%
    Arată mai mult